TimeEDT,TemperatureF,Dew PointF,Humidity,Sea Level PressureIn,VisibilityMPH,Wind Direction,Wind SpeedMPH,Gust SpeedMPH,PrecipitationIn,Events,Conditions,WindDirDegrees,DateUTC
12:51 AM,28.9,19.9,69,29.83,10.0,Calm,Calm,-,N/A,,Scattered Clouds,0,2013-03-21 04:51:00
1:51 AM,28.0,21.0,75,29.83,10.0,Calm,Calm,-,N/A,,Overcast,0,2013-03-21 05:51:00
2:51 AM,30.0,19.9,66,29.81,10.0,West,3.5,-,N/A,,Overcast,280,2013-03-21 06:51:00
3:51 AM,30.0,19.9,66,29.80,10.0,Calm,Calm,-,N/A,,Overcast,0,2013-03-21 07:51:00
4:51 AM,30.9,19.9,64,29.78,10.0,North,3.5,-,N/A,,Overcast,10,2013-03-21 08:51:00
5:51 AM,30.9,19.9,64,29.79,10.0,NNE,4.6,-,N/A,,Overcast,20,2013-03-21 09:51:00
6:51 AM,30.9,19.0,61,29.79,10.0,North,5.8,-,N/A,,Mostly Cloudy,350,2013-03-21 10:51:00
7:51 AM,32.0,17.1,54,29.80,10.0,North,6.9,-,N/A,,Mostly Cloudy,10,2013-03-21 11:51:00
8:51 AM,32.0,18.0,56,29.78,10.0,NNW,8.1,-,N/A,,Mostly Cloudy,340,2013-03-21 12:51:00
9:51 AM,35.1,19.9,54,29.77,10.0,North,6.9,-,N/A,,Scattered Clouds,360,2013-03-21 13:51:00
10:51 AM,36.0,19.9,52,29.75,10.0,North,12.7,-,N/A,,Mostly Cloudy,360,2013-03-21 14:51:00
11:51 AM,36.0,19.9,52,29.73,10.0,NNW,9.2,-,N/A,,Overcast,340,2013-03-21 15:51:00
12:51 PM,37.0,21.0,52,29.69,10.0,North,11.5,-,N/A,,Mostly Cloudy,10,2013-03-21 16:51:00
1:51 PM,37.9,21.9,53,29.67,10.0,NNE,11.5,-,N/A,,Mostly Cloudy,20,2013-03-21 17:51:00
2:51 PM,39.0,23.0,53,29.63,10.0,North,10.4,17.3,N/A,,Mostly Cloudy,360,2013-03-21 18:51:00
3:51 PM,37.0,24.1,59,29.62,10.0,North,8.1,-,N/A,,Overcast,350,2013-03-21 19:51:00
4:51 PM,36.0,24.1,62,29.61,7.0,NNW,10.4,-,0.00,Snow,Light Snow,340,2013-03-21 20:51:00
5:46 PM,35.6,24.8,65,29.62,2.0,North,9.2,-,0.00,Snow,Light Snow,10,2013-03-21 21:46:00
5:47 PM,35.1,25.0,67,29.62,2.0,North,8.1,-,0.00,Snow,Light Snow,360,2013-03-21 21:47:00
5:51 PM,35.1,25.0,67,29.62,2.0,North,8.1,-,0.00,Snow,Light Snow,360,2013-03-21 21:51:00
5:56 PM,33.8,26.6,75,29.61,1.0,NNW,10.4,-,0.00,Snow,Light Snow,340,2013-03-21 21:56:00
6:22 PM,33.8,26.6,75,29.62,2.5,NNW,10.4,-,0.00,Snow,Light Snow,340,2013-03-21 22:22:00
6:34 PM,33.8,26.6,75,29.62,9.0,NNW,11.5,-,0.00,Snow,Light Snow,340,2013-03-21 22:34:00
6:51 PM,34.0,25.0,70,29.63,9.0,NNW,11.5,-,0.00,,Overcast,340,2013-03-21 22:51:00
7:51 PM,33.1,25.0,72,29.63,10.0,North,6.9,-,N/A,,Overcast,360,2013-03-21 23:51:00
8:51 PM,33.1,25.0,72,29.64,7.0,North,9.2,-,0.00,Snow,Light Snow,350,2013-03-22 00:51:00
9:49 PM,30.2,26.6,86,29.64,1.8,NNE,3.5,-,0.00,Snow,Light Snow,20,2013-03-22 01:49:00
9:50 PM,30.9,27.0,85,29.64,1.8,NNE,3.5,-,0.00,Snow,Light Snow,20,2013-03-22 01:50:00
9:59 PM,30.2,28.4,93,29.64,3.0,NNE,3.5,-,0.00,Snow,Light Snow,20,2013-03-22 01:59:00
10:10 PM,30.2,28.4,93,29.63,4.0,Calm,Calm,-,0.00,Snow,Light Snow,0,2013-03-22 02:10:00
10:20 PM,30.2,28.4,93,29.63,8.0,Calm,Calm,-,0.00,Snow,Light Snow,0,2013-03-22 02:20:00
10:51 PM,32.0,27.0,82,29.63,9.0,West,5.8,-,0.00,,Overcast,280,2013-03-22 02:51:00
11:51 PM,32.0,27.0,82,29.63,10.0,West,4.6,-,N/A,,Overcast,270,2013-03-22 03:51:00